User: anonymous   Login
Location: Wildlife_Club
(35.6000°N, 81.4330°W)
Time: 19:21:30
(UTC-04:00)
Language:

Cosmos 1782 - Orbit

View from above orbital plane
View from above orbital plane
View from above satellite
View from above satellite

Ground track
Ground track

The orbit data is extracted from the following two-line orbital elements,

1 16986U 86074A   15214.11455196  .00001061  00000-0  72222-4 0  9997
2 16986 082.5052 067.1345 0012224 152.2336 207.9546 15.05227640567747
Epoch (UTC): 02 August 2015 02:44:57
Eccentricity: 0.0012224
inclination: 82.5052°
perigee height: 542 km
apogee height: 559 km
right ascension of ascending node: 67.1345°
argument of perigee: 152.2336°
revolutions per day: 15.05227640
mean anomaly at epoch: 207.9546°
orbit number at epoch: 56774

The dashed part of the orbit path shows where the satellite is in the earth's shadow,  

DLR